Simultaneous Nadir Overpasses (SNOs) Predictions

Prediction of SNOs between GOES-15 and TERRA Satellite Orbit:

Table of predicted SNOs for the next 14.0 days since TLE Epoch: 2/21/2025
Index Date Time (GOES-15) GOES-15 Lat,Lon TERRA Lat,Lon Distance(km) Time Diff (sec)
1 02/22/2025 05:38:51 -0.01, 61.42 0.77, 57.71 421.66 80
2 02/24/2025 05:22:48 -0.01, 61.41 -0.16, 62.23 91.70 80
3 02/24/2025 17:42:31 0.02, 61.38 -0.82, 57.42 450.01 80
4 02/26/2025 17:21:08 0.01, 61.38 0.15, 61.93 62.84 80
5 02/27/2025 05:40:43 -0.02, 61.41 0.87, 57.17 482.34 80
6 03/01/2025 05:24:39 -0.01, 61.41 -0.07, 61.69 30.94 80
7 03/03/2025 17:25:37 0.02, 61.38 0.04, 61.40 3.12 80
8 03/06/2025 05:23:46 -0.02, 61.44 0.01, 61.16 31.53 80
